Time,TemperatureF,DewpointF,PressureIn,WindDirection,WindDirectionDegrees,WindSpeedMPH,WindSpeedGustMPH,Humidity,HourlyPrecipIn,Conditions,Clouds,dailyrainin,SolarRadiationWatts/m^2,SoftwareType,DateUTC
2013-05-24 00:01:00,64.7,64.7,29.72,WSW,254,0.0,0.0,100,0.05,,OVC019,0.00,0.00,VWS V14.01,2013-05-24 04:01:00,
2013-05-24 00:11:00,64.7,64.7,29.72,WSW,254,0.0,4.0,100,0.05,,BKN027,0.00,0.00,VWS V14.01,2013-05-24 04:11:00,
2013-05-24 00:21:00,64.8,64.8,29.71,West,266,4.0,6.0,100,0.03,,BKN027,0.00,0.00,VWS V14.01,2013-05-24 04:21:00,
2013-05-24 00:31:00,64.8,64.8,29.70,WSW,255,3.0,5.0,100,0.04,,BKN027,0.01,0.00,VWS V14.01,2013-05-24 04:31:00,
2013-05-24 00:41:00,64.8,64.8,29.70,West,274,4.0,7.0,100,0.03,,BKN027,0.01,0.00,VWS V14.01,2013-05-24 04:41:00,
2013-05-24 00:51:00,64.8,64.8,29.70,West,260,2.0,6.0,100,0.05,,BKN027,0.03,0.00,VWS V14.01,2013-05-24 04:51:00,
2013-05-24 01:01:00,64.8,64.8,29.70,WSW,252,4.0,6.0,100,0.06,,BKN027,0.05,0.00,VWS V14.01,2013-05-24 05:01:00,
2013-05-24 01:11:00,64.8,64.8,29.70,West,269,6.0,7.0,100,0.07,,OVC040,0.07,0.00,VWS V14.01,2013-05-24 05:11:00,
2013-05-24 01:21:00,64.8,64.8,29.69,West,260,6.0,10.0,100,0.07,,OVC040,0.07,0.00,VWS V14.01,2013-05-24 05:21:00,
2013-05-24 01:31:00,64.8,64.8,29.68,West,260,3.0,7.0,100,0.08,,OVC040,0.08,0.00,VWS V14.01,2013-05-24 05:31:00,
2013-05-24 01:41:00,64.7,64.7,29.68,West,262,5.0,7.0,100,0.08,,OVC040,0.09,0.00,VWS V14.01,2013-05-24 05:41:00,
2013-05-24 01:51:00,64.7,64.7,29.68,SW,233,5.0,7.0,100,0.08,,OVC040,0.09,0.00,VWS V14.01,2013-05-24 05:51:00,
2013-05-24 02:01:00,64.5,64.5,29.68,West,268,4.0,9.0,100,0.07,,OVC040,0.10,0.00,VWS V14.01,2013-05-24 06:01:00,
2013-05-24 02:11:00,64.3,64.3,29.68,West,259,5.0,9.0,100,0.08,,OVC025,0.13,0.00,VWS V14.01,2013-05-24 06:11:00,
2013-05-24 02:21:00,64.3,64.3,29.68,WSW,258,6.0,7.0,100,0.08,,OVC025,0.15,0.00,VWS V14.01,2013-05-24 06:21:00,
2013-05-24 02:31:00,64.2,64.2,29.67,West,262,5.0,7.0,100,0.09,,OVC025,0.16,0.00,VWS V14.01,2013-05-24 06:31:00,
2013-05-24 02:41:00,64.2,64.2,29.67,WSW,239,5.0,6.0,100,0.09,,OVC025,0.17,0.00,VWS V14.01,2013-05-24 06:41:00,
2013-05-24 02:51:00,64.2,64.2,29.66,West,266,4.0,7.0,100,0.08,,OVC025,0.17,0.00,VWS V14.01,2013-05-24 06:51:00,
2013-05-24 03:01:00,64.0,64.0,29.66,West,261,5.0,5.0,100,0.08,,OVC025,0.17,0.00,VWS V14.01,2013-05-24 07:01:00,
2013-05-24 03:11:00,64.0,64.0,29.66,WSW,249,2.0,7.0,100,0.08,,OVC055,0.18,0.00,VWS V14.01,2013-05-24 07:11:00,
2013-05-24 03:21:00,64.0,64.0,29.65,WSW,251,4.0,7.0,100,0.05,,OVC055,0.18,0.00,VWS V14.01,2013-05-24 07:21:00,
2013-05-24 03:31:00,63.9,63.9,29.65,WSW,253,7.0,7.0,100,0.04,,OVC055,0.19,0.00,VWS V14.01,2013-05-24 07:31:00,
2013-05-24 03:41:00,63.9,63.9,29.65,WSW,257,2.0,7.0,100,0.04,,OVC026,0.20,0.00,VWS V14.01,2013-05-24 07:41:00,
2013-05-24 03:51:00,63.7,63.7,29.65,WSW,257,0.0,4.0,100,0.03,,OVC026,0.20,0.00,VWS V14.01,2013-05-24 07:51:00,
2013-05-24 04:01:00,63.7,63.7,29.64,WSW,257,0.0,3.0,100,0.04,,OVC026,0.21,0.00,VWS V14.01,2013-05-24 08:01:00,
2013-05-24 04:11:00,63.7,63.7,29.64,WSW,257,0.0,3.0,100,0.05,,OVC030,0.22,0.00,VWS V14.01,2013-05-24 08:11:00,
2013-05-24 04:21:00,63.7,63.7,29.63,WSW,257,2.0,3.0,100,0.04,,OVC030,0.22,0.00,VWS V14.01,2013-05-24 08:21:00,
2013-05-24 04:31:00,63.7,63.7,29.63,West,269,1.0,4.0,100,0.05,,OVC030,0.23,0.00,VWS V14.01,2013-05-24 08:31:00,
2013-05-24 04:41:00,63.7,63.7,29.63,West,269,1.0,3.0,100,0.04,,OVC026,0.23,0.00,VWS V14.01,2013-05-24 08:41:00,
2013-05-24 04:51:00,63.5,63.5,29.63,West,269,0.0,3.0,100,0.03,,OVC026,0.23,0.00,VWS V14.01,2013-05-24 08:51:00,
2013-05-24 05:01:00,63.5,63.5,29.62,West,269,0.0,2.0,100,0.03,,OVC026,0.23,0.00,VWS V14.01,2013-05-24 09:01:00,
2013-05-24 05:11:00,63.4,63.4,29.62,West,269,0.0,2.0,100,0.03,,OVC040,0.24,0.00,VWS V14.01,2013-05-24 09:11:00,
2013-05-24 05:21:00,63.4,63.4,29.62,West,269,0.0,0.0,100,0.02,,OVC040,0.24,0.00,VWS V14.01,2013-05-24 09:21:00,
2013-05-24 05:31:00,63.2,63.2,29.62,West,269,0.0,1.0,100,0.02,,OVC040,0.24,0.00,VWS V14.01,2013-05-24 09:31:00,
2013-05-24 05:41:00,63.1,63.1,29.62,West,269,0.0,2.0,100,0.02,,OVC040,0.25,5.00,VWS V14.01,2013-05-24 09:41:00,
2013-05-24 05:51:00,63.2,63.2,29.60,West,269,0.0,1.0,100,0.02,,OVC040,0.25,9.00,VWS V14.01,2013-05-24 09:51:00,
2013-05-24 06:01:00,63.1,63.1,29.60,West,269,0.0,0.0,100,0.02,,OVC040,0.25,12.00,VWS V14.01,2013-05-24 10:01:00,
2013-05-24 06:11:00,63.2,63.2,29.60,West,269,1.0,2.0,100,0.03,,BKN120,0.26,11.00,VWS V14.01,2013-05-24 10:11:00,
2013-05-24 06:21:00,63.4,63.4,29.60,West,269,0.0,2.0,100,0.02,,BKN120,0.26,23.00,VWS V14.01,2013-05-24 10:21:00,
2013-05-24 06:31:00,63.4,63.4,29.60,West,269,0.0,0.0,100,0.02,,BKN120,0.26,47.00,VWS V14.01,2013-05-24 10:31:00,
2013-05-24 06:41:00,63.7,63.7,29.60,West,269,0.0,0.0,100,0.02,,BKN018,0.26,67.00,VWS V14.01,2013-05-24 10:41:00,
2013-05-24 06:51:00,63.9,63.9,29.60,West,269,0.0,0.0,100,0.01,,BKN018,0.26,88.00,VWS V14.01,2013-05-24 10:51:00,
2013-05-24 07:11:00,64.0,64.0,29.59,West,269,0.0,2.0,100,0.01,,BKN018,0.26,76.00,VWS V14.01,2013-05-24 11:11:00,
2013-05-24 07:21:00,64.2,64.2,29.58,West,269,0.0,3.0,100,0.00,,BKN018,0.26,97.00,VWS V14.01,2013-05-24 11:21:00,
2013-05-24 07:31:00,64.7,64.7,29.60,West,259,5.0,7.0,100,0.00,,BKN018,0.26,83.00,VWS V14.01,2013-05-24 11:31:00,
2013-05-24 07:41:00,64.5,64.5,29.60,West,259,6.0,6.0,100,0.00,,OVC016,0.26,88.00,VWS V14.01,2013-05-24 11:41:00,
2013-05-24 07:51:00,64.5,64.5,29.60,WSW,257,6.0,8.0,100,0.00,,OVC016,0.26,141.00,VWS V14.01,2013-05-24 11:51:00,
2013-05-24 08:01:00,64.7,64.7,29.61,WSW,258,5.0,11.0,100,0.00,,OVC016,0.26,178.00,VWS V14.01,2013-05-24 12:01:00,
2013-05-24 08:11:00,64.8,64.8,29.61,WSW,254,4.0,7.0,100,0.00,,OVC016,0.26,148.00,VWS V14.01,2013-05-24 12:11:00,
2013-05-24 08:21:00,65.0,65.0,29.61,WSW,240,4.0,7.0,100,0.00,,OVC016,0.26,216.00,VWS V14.01,2013-05-24 12:21:00,
2013-05-24 08:31:00,65.2,65.2,29.62,SW,221,3.0,9.0,100,0.00,,OVC016,0.26,158.00,VWS V14.01,2013-05-24 12:31:00,
2013-05-24 08:41:00,65.3,65.3,29.62,WSW,241,2.0,6.0,100,0.00,,OVC008,0.26,174.00,VWS V14.01,2013-05-24 12:41:00,
2013-05-24 08:51:00,65.6,65.6,29.62,WSW,256,1.0,6.0,100,0.00,,OVC008,0.26,149.00,VWS V14.01,2013-05-24 12:51:00,
2013-05-24 09:01:00,65.6,65.6,29.63,WSW,255,2.0,5.0,100,0.00,,OVC008,0.26,195.00,VWS V14.01,2013-05-24 13:01:00,
2013-05-24 09:11:00,65.8,65.8,29.63,WSW,252,0.0,5.0,100,0.00,,OVC008,0.26,234.00,VWS V14.01,2013-05-24 13:11:00,
2013-05-24 09:21:00,65.8,65.8,29.63,WSW,252,5.0,5.0,100,0.00,,OVC008,0.26,120.00,VWS V14.01,2013-05-24 13:21:00,
2013-05-24 09:31:00,66.0,66.0,29.64,West,265,3.0,5.0,100,0.00,,OVC008,0.26,160.00,VWS V14.01,2013-05-24 13:31:00,
2013-05-24 09:41:00,66.0,66.0,29.64,West,262,0.0,4.0,100,0.00,,OVC008,0.26,243.00,VWS V14.01,2013-05-24 13:41:00,
2013-05-24 09:51:00,66.1,66.1,29.64,WSW,243,0.0,4.0,100,0.00,,OVC008,0.26,251.00,VWS V14.01,2013-05-24 13:51:00,
2013-05-24 10:01:00,66.3,66.3,29.64,West,266,0.0,4.0,100,0.00,,OVC008,0.26,227.00,VWS V14.01,2013-05-24 14:01:00,
2013-05-24 10:11:00,66.4,66.4,29.64,West,268,5.0,6.0,100,0.00,,BKN025,0.26,202.00,VWS V14.01,2013-05-24 14:11:00,
2013-05-24 10:21:00,66.4,66.4,29.64,West,268,0.0,5.0,100,0.00,,BKN025,0.26,135.00,VWS V14.01,2013-05-24 14:21:00,
2013-05-24 10:31:00,66.3,66.3,29.64,West,268,0.0,3.0,100,0.00,,BKN025,0.26,155.00,VWS V14.01,2013-05-24 14:31:00,
2013-05-24 10:41:00,66.3,66.3,29.64,SW,224,2.0,6.0,100,0.00,,FEW035,0.26,172.00,VWS V14.01,2013-05-24 14:41:00,
2013-05-24 10:51:00,66.3,66.3,29.65,West,267,4.0,9.0,100,0.00,,FEW035,0.26,151.00,VWS V14.01,2013-05-24 14:51:00,
2013-05-24 11:01:00,66.6,66.3,29.65,WNW,295,2.0,7.0,99,0.00,,FEW035,0.26,295.00,VWS V14.01,2013-05-24 15:01:00,
2013-05-24 11:11:00,67.6,67.3,29.65,WNW,288,4.0,5.0,99,0.00,,SCT033,0.26,364.00,VWS V14.01,2013-05-24 15:11:00,
2013-05-24 11:21:00,67.3,65.5,29.64,WNW,283,4.0,7.0,94,0.00,,SCT033,0.26,294.00,VWS V14.01,2013-05-24 15:21:00,
2013-05-24 11:31:00,67.8,65.7,29.65,WNW,285,4.0,9.0,93,0.00,,SCT033,0.26,230.00,VWS V14.01,2013-05-24 15:31:00,
2013-05-24 11:41:00,67.4,64.1,29.65,West,276,9.0,12.0,89,0.00,,BKN050,0.26,206.00,VWS V14.01,2013-05-24 15:41:00,
2013-05-24 11:51:00,67.8,63.1,29.66,WSW,250,10.0,14.0,85,0.00,,BKN050,0.26,364.00,VWS V14.01,2013-05-24 15:51:00,
2013-05-24 12:01:00,68.8,63.1,29.65,WNW,290,10.0,13.0,82,0.00,,BKN050,0.26,221.00,VWS V14.01,2013-05-24 16:01:00,
2013-05-24 12:11:00,67.1,61.8,29.65,NW,309,8.0,16.0,83,0.00,,BKN050,0.26,255.00,VWS V14.01,2013-05-24 16:11:00,
2013-05-24 12:21:00,66.1,60.8,29.66,WNW,292,12.0,16.0,83,0.00,,BKN050,0.26,179.00,VWS V14.01,2013-05-24 16:21:00,
2013-05-24 12:31:00,64.0,58.7,29.68,NW,324,10.0,20.0,83,0.00,,BKN050,0.26,250.00,VWS V14.01,2013-05-24 16:31:00,
2013-05-24 12:41:00,62.9,56.6,29.68,WNW,283,10.0,17.0,80,0.00,,BKN050,0.26,308.00,VWS V14.01,2013-05-24 16:41:00,
2013-05-24 12:51:00,62.9,57.0,29.68,WNW,298,14.0,16.0,81,0.00,,BKN050,0.26,422.00,VWS V14.01,2013-05-24 16:51:00,
2013-05-24 13:01:00,62.4,55.8,29.69,West,262,11.0,19.0,79,0.00,,BKN050,0.26,234.00,VWS V14.01,2013-05-24 17:01:00,
2013-05-24 13:11:00,61.3,55.4,29.69,West,274,6.0,17.0,81,0.00,,OVC047,0.26,269.00,VWS V14.01,2013-05-24 17:11:00,
2013-05-24 13:21:00,61.3,55.4,29.69,NNW,347,4.0,12.0,81,0.00,,OVC047,0.26,355.00,VWS V14.01,2013-05-24 17:21:00,
2013-05-24 13:31:00,60.9,54.7,29.70,WNW,294,0.0,15.0,80,0.00,,OVC047,0.26,316.00,VWS V14.01,2013-05-24 17:31:00,
2013-05-24 13:41:00,60.2,54.0,29.70,WNW,290,11.0,14.0,80,0.00,,BKN034,0.26,279.00,VWS V14.01,2013-05-24 17:41:00,
2013-05-24 13:51:00,59.8,53.3,29.70,West,278,13.0,17.0,79,0.00,,BKN034,0.26,225.00,VWS V14.01,2013-05-24 17:51:00,
2013-05-24 14:01:00,59.8,54.0,29.70,WSW,258,12.0,14.0,81,0.00,,BKN034,0.26,167.00,VWS V14.01,2013-05-24 18:01:00,
2013-05-24 14:11:00,59.5,53.3,29.70,West,269,10.0,18.0,80,0.00,,BKN075,0.26,167.00,VWS V14.01,2013-05-24 18:11:00,
2013-05-24 14:21:00,59.3,52.5,29.70,WNW,300,2.0,12.0,78,0.00,,BKN075,0.26,211.00,VWS V14.01,2013-05-24 18:21:00,
2013-05-24 14:31:00,59.6,52.4,29.71,West,264,12.0,14.0,77,0.00,,BKN075,0.26,334.00,VWS V14.01,2013-05-24 18:31:00,
2013-05-24 14:41:00,59.9,52.0,29.71,WNW,288,11.0,17.0,75,0.00,,BKN075,0.26,267.00,VWS V14.01,2013-05-24 18:41:00,
2013-05-24 14:51:00,59.9,51.6,29.71,WNW,286,19.0,19.0,74,0.00,,BKN075,0.26,348.00,VWS V14.01,2013-05-24 18:51:00,
2013-05-24 15:01:00,60.1,51.8,29.70,West,274,8.0,19.0,74,0.00,,BKN075,0.26,288.00,VWS V14.01,2013-05-24 19:01:00,
2013-05-24 15:11:00,60.1,51.1,29.70,NW,325,11.0,17.0,72,0.00,,OVC075,0.26,329.00,VWS V14.01,2013-05-24 19:11:00,
2013-05-24 15:21:00,61.3,52.2,29.70,West,268,16.0,16.0,72,0.00,,OVC075,0.26,638.00,VWS V14.01,2013-05-24 19:21:00,
2013-05-24 15:31:00,62.3,51.6,29.70,NW,314,14.0,21.0,68,0.00,,OVC075,0.26,580.00,VWS V14.01,2013-05-24 19:31:00,
2013-05-24 15:41:00,60.7,51.2,29.70,NNW,335,6.0,18.0,71,0.00,,OVC075,0.26,332.00,VWS V14.01,2013-05-24 19:41:00,
2013-05-24 15:51:00,60.2,50.8,29.70,WNW,295,8.0,16.0,71,0.00,,OVC075,0.26,418.00,VWS V14.01,2013-05-24 19:51:00,
2013-05-24 16:01:00,60.2,50.8,29.71,West,270,11.0,15.0,71,0.00,,OVC075,0.26,299.00,VWS V14.01,2013-05-24 20:01:00,
2013-05-24 16:11:00,59.8,50.0,29.71,WNW,285,14.0,19.0,70,0.00,,FEW095,0.26,288.00,VWS V14.01,2013-05-24 20:11:00,
2013-05-24 16:21:00,59.6,50.2,29.71,West,259,19.0,19.0,71,0.00,,FEW095,0.26,274.00,VWS V14.01,2013-05-24 20:21:00,
2013-05-24 16:31:00,59.5,49.7,29.71,WNW,291,11.0,20.0,70,0.00,,FEW095,0.26,230.00,VWS V14.01,2013-05-24 20:31:00,
2013-05-24 16:41:00,58.7,49.3,29.71,WNW,290,12.0,18.0,71,0.00,,FEW095,0.26,311.00,VWS V14.01,2013-05-24 20:41:00,
2013-05-24 16:51:00,58.0,47.9,29.72,NW,319,10.0,19.0,69,0.00,,FEW095,0.26,146.00,VWS V14.01,2013-05-24 20:51:00,
2013-05-24 17:01:00,57.5,48.6,29.72,West,274,11.0,18.0,72,0.00,,FEW095,0.26,209.00,VWS V14.01,2013-05-24 21:01:00,
2013-05-24 17:11:00,56.7,48.2,29.72,WNW,297,6.0,20.0,73,0.00,,SCT110,0.26,149.00,VWS V14.01,2013-05-24 21:11:00,
2013-05-24 17:21:00,56.5,48.3,29.73,West,265,12.0,18.0,74,0.00,,SCT110,0.26,111.00,VWS V14.01,2013-05-24 21:21:00,
2013-05-24 17:31:00,56.3,48.5,29.73,NW,309,3.0,17.0,75,0.00,,SCT110,0.26,100.00,VWS V14.01,2013-05-24 21:31:00,
2013-05-24 17:41:00,55.9,47.7,29.73,NW,322,10.0,17.0,74,0.00,,SCT110,0.26,162.00,VWS V14.01,2013-05-24 21:41:00,
2013-05-24 17:51:00,55.7,46.8,29.73,NNW,329,9.0,16.0,72,0.00,,SCT110,0.26,127.00,VWS V14.01,2013-05-24 21:51:00,
2013-05-24 18:01:00,55.4,46.2,29.75,WNW,290,17.0,17.0,71,0.00,,SCT110,0.26,102.00,VWS V14.01,2013-05-24 22:01:00,
2013-05-24 18:11:00,54.8,46.0,29.75,WNW,290,15.0,19.0,72,0.00,,BKN100,0.26,33.00,VWS V14.01,2013-05-24 22:11:00,
2013-05-24 18:21:00,54.2,45.8,29.75,NW,322,5.0,22.0,73,0.00,,BKN100,0.26,63.00,VWS V14.01,2013-05-24 22:21:00,
2013-05-24 18:31:00,53.9,45.5,29.75,WNW,293,16.0,19.0,73,0.00,,BKN100,0.26,49.00,VWS V14.01,2013-05-24 22:31:00,
2013-05-24 18:41:00,53.5,45.1,29.75,NW,305,9.0,19.0,73,0.00,,OVC031,0.26,42.00,VWS V14.01,2013-05-24 22:41:00,
2013-05-24 18:51:00,53.1,45.0,29.76,WNW,282,7.0,15.0,74,0.00,,OVC031,0.26,49.00,VWS V14.01,2013-05-24 22:51:00,
2013-05-24 19:01:00,52.8,44.8,29.76,NW,311,16.0,18.0,74,0.00,,OVC031,0.26,39.00,VWS V14.01,2013-05-24 23:01:00,
2013-05-24 19:11:00,52.3,44.3,29.76,WSW,255,7.0,17.0,74,0.00,,OVC031,0.26,33.00,VWS V14.01,2013-05-24 23:11:00,
2013-05-24 19:21:00,52.0,44.3,29.76,North,349,8.0,18.0,75,0.00,,OVC031,0.26,16.00,VWS V14.01,2013-05-24 23:21:00,
2013-05-24 19:31:00,51.7,44.4,29.77,WNW,286,10.0,17.0,76,0.00,,OVC031,0.26,9.00,VWS V14.01,2013-05-24 23:31:00,
2013-05-24 19:41:00,51.1,44.5,29.77,NW,323,3.0,15.0,78,0.00,,OVC031,0.26,5.00,VWS V14.01,2013-05-24 23:41:00,
2013-05-24 19:51:00,50.8,44.9,29.77,WNW,302,9.0,11.0,80,0.00,,OVC031,0.26,0.00,VWS V14.01,2013-05-24 23:51:00,
2013-05-24 20:01:00,50.7,45.1,29.78,NW,304,6.0,12.0,81,0.00,,OVC031,0.26,0.00,VWS V14.01,2013-05-25 00:01:00,
2013-05-24 20:11:00,50.2,45.6,29.78,WNW,301,4.0,11.0,84,0.00,,OVC029,0.26,0.00,VWS V14.01,2013-05-25 00:11:00,
2013-05-24 20:21:00,49.9,45.3,29.78,WSW,247,0.0,9.0,84,0.00,,OVC029,0.26,0.00,VWS V14.01,2013-05-25 00:21:00,
2013-05-24 20:31:00,49.9,45.6,29.78,North,1,0.0,10.0,85,0.00,,OVC029,0.26,0.00,VWS V14.01,2013-05-25 00:31:00,
2013-05-24 20:41:00,49.6,44.3,29.78,West,268,4.0,5.0,82,0.00,,OVC029,0.26,0.00,VWS V14.01,2013-05-25 00:41:00,
2013-05-24 20:51:00,49.6,44.7,29.78,WNW,284,0.0,5.0,83,0.00,,OVC029,0.26,0.00,VWS V14.01,2013-05-25 00:51:00,
2013-05-24 21:01:00,49.8,45.2,29.79,WSW,238,3.0,8.0,84,0.00,,OVC029,0.26,0.00,VWS V14.01,2013-05-25 01:01:00,
2013-05-24 21:11:00,49.4,45.1,29.79,SW,224,0.0,5.0,85,0.00,,OVC037,0.26,0.00,VWS V14.01,2013-05-25 01:11:00,
2013-05-24 21:21:00,49.2,44.9,29.80,WSW,247,0.0,4.0,85,0.00,,OVC037,0.26,0.00,VWS V14.01,2013-05-25 01:21:00,
2013-05-24 21:31:00,49.2,45.2,29.80,WNW,300,2.0,7.0,86,0.00,,OVC037,0.26,0.00,VWS V14.01,2013-05-25 01:31:00,
2013-05-24 21:41:00,49.1,45.7,29.80,WNW,288,0.0,4.0,88,0.02,,OVC037,0.28,0.00,VWS V14.01,2013-05-25 01:41:00,
2013-05-24 21:51:00,48.5,46.0,29.81,WNW,288,0.0,2.0,91,0.03,,OVC037,0.29,0.00,VWS V14.01,2013-05-25 01:51:00,
2013-05-24 22:01:00,48.0,46.1,29.82,WNW,288,0.0,3.0,93,0.05,,OVC037,0.31,0.00,VWS V14.01,2013-05-25 02:01:00,
2013-05-24 22:11:00,47.9,46.3,29.82,WNW,288,4.0,4.0,94,0.05,,OVC031,0.31,0.00,VWS V14.01,2013-05-25 02:11:00,
2013-05-24 22:21:00,48.0,46.4,29.82,WNW,288,2.0,4.0,94,0.05,,OVC031,0.31,0.00,VWS V14.01,2013-05-25 02:21:00,
2013-05-24 22:31:00,47.9,46.5,29.82,WNW,288,1.0,3.0,95,0.05,,OVC031,0.31,0.00,VWS V14.01,2013-05-25 02:31:00,
2013-05-24 22:41:00,47.9,46.5,29.82,WNW,288,0.0,4.0,95,0.06,,OVC031,0.32,0.00,VWS V14.01,2013-05-25 02:41:00,
2013-05-24 22:51:00,47.7,46.6,29.82,NW,316,3.0,6.0,96,0.05,,OVC031,0.33,0.00,VWS V14.01,2013-05-25 02:51:00,
2013-05-24 23:01:00,47.7,46.6,29.82,WNW,294,3.0,8.0,96,0.04,,OVC031,0.33,0.00,VWS V14.01,2013-05-25 03:01:00,
2013-05-24 23:11:00,47.7,46.6,29.82,WNW,286,2.0,5.0,96,0.02,,OVC031,0.33,0.00,VWS V14.01,2013-05-25 03:11:00,
2013-05-24 23:21:00,47.9,46.8,29.81,WNW,299,0.0,6.0,96,0.02,,OVC031,0.33,0.00,VWS V14.01,2013-05-25 03:21:00,
2013-05-24 23:31:00,48.0,46.9,29.82,WNW,303,3.0,5.0,96,0.02,,OVC031,0.33,0.00,VWS V14.01,2013-05-25 03:31:00,
2013-05-24 23:41:00,47.7,46.3,29.82,WNW,300,3.0,10.0,95,0.03,,OVC031,0.34,0.00,VWS V14.01,2013-05-25 03:41:00,
2013-05-24 23:51:00,47.9,46.5,29.82,WNW,300,4.0,4.0,95,0.02,,OVC031,0.34,0.00,VWS V14.01,2013-05-25 03:51:00,